全球卫星定位系统 GPS 81星 (NAVSTAR 81 (USA 319))

导读 | 星芒AI

NAVSTAR 81(USA 319)是美国空军部署的一颗GPS IIIA系列导航卫星,于2023年12月由SpaceX的猎鹰9号火箭从加利福尼亚州范登堡太空军基地发射升空。该卫星由洛克希德·马丁公司制造,旨在增强全球定位系统的精度和可靠性。GPS IIIA卫星具备更强大的抗干扰能力,并支持更长的在轨寿命(约15年)。NAVSTAR 81是美国更新GPS星座计划的一部分,有助于提升军事和民用导航服务的性能。

基本信息
目录编号:
48859
目录名称:
NAVSTAR 81 (USA 319)
国际标识:
2021-054A
轨道中心:
EARTH
卫星名称:
GPS 81星
卫星全名:
全球卫星定位系统 GPS 81星 (NAVSTAR 81 (USA 319))
卫星状态:
在轨 (已飞行1720 天)
发射日期:
2021-06-17 UTC
国别 :
美国 (US)
星等 :
--
轨道信息
数据来源 国际轨道数据 AOE轨道数据
星历时间 2026-03-03T03:53:35+0800
5小时前
查看轨道信息
2026-03-01T10:00:00+0800
1天前
查看轨道信息
半长轴 26559.298km 26559.289km
偏心率 0.0023881 0.0023817
轨道倾角 55.222° 55.223°
近地点辐角 232.101° 232.153°
升交点赤经 336.737° 336.807°
平近点角 137.082° 316.584°
近地点 20117.734km 20117.895km
远地点 20244.588km 20244.409km
周期 717.934分钟 717.934分钟
每日圈数 2.005755 2.005756
详细信息
平衡模式:
三轴稳定
覆盖范围:
全球
运营商:
美国太空军
运营商所在国:
美国
制造商(研发单位):
洛克希德·马丁公司
制造商所在国:
美国
使用方式:
暂无
工作目标:
提供军用及民用全球定位与导航服务
预期寿命:
15年
卫星简介
全球定位系统(英语:Global Positioning System,通常简称GPS),又称全球卫星定位系统,是美国国防部研制,美国太空军运营与维护的中地球轨道卫星导航系统。它可以为地球表面约98%的地区提供准确的定位、测速和高精度的标准时间。全球定位系统可满足位于全球地面任何一处或近地空间的军事用户连续且精确地确定三维位置、三维运动和时间的需求。该系统包括太空中的31颗GPS人造卫星.该卫星仍在工作。
2D轨道图
3D轨道图
轨道高度分析图
轨道倾角分析图
轨道综合分析图
查看轨道综合分析图